{"data":{"norad_id":69778,"intl_designator":"2026-151R","name":"KUIPER-00621","alt_names":[],"object_type":"PAYLOAD","status":"ACTIVE","operator":null,"country":"US","launch_date":"2026-07-02","launch_site_code":"AFETR","launch_vehicle":null,"mission":null,"orbit_class":"UNKNOWN","rcs_meters":null,"size_class":null,"mass_kg":null,"dimensions":null,"purposes":[],"wikipedia_slug":null,"has_3d_model":false,"image_url":null,"decayed_at":null,"tle_current":{"epoch":"2026-09-19T15:07:34.863168Z","epoch_age_seconds":100621,"freshness":"FRESH","line1":"1 69778U 26151R   26262.63026462 -.00000799  00000+0 -75861-4 0  9996","line2":"2 69778  51.9020 233.0391 0000731  96.1022 264.0024 14.79938079 12040","mean_motion":14.79938079,"eccentricity":7.31e-5,"inclination_deg":51.902,"raan_deg":233.0391,"arg_perigee_deg":96.1022,"mean_anomaly_deg":264.0024,"bstar":-7.5861e-5,"rev_number":1204,"period_min":97.301368241907,"perigee_km":629.00733637925,"apogee_km":630.0318557736,"semimajor_km":7007.6565960764,"source":"CELESTRAK","updated_at":"2026-09-20T09:00:25.092447Z"}}}